GW1438 Weather Reports


time (UTC)temp
C
wind
direction
speed
KPH
gust
KPH
rain 1hr
cm
rain 24hr
cm
rain mn
cm
humidity
%
barometer
mb
20260506004130 23 170 4.8 8.0 0.00 0.00 0.00 34 1011.5
20260506003626 24 5 1.6 3.2 0.00 0.00 0.00 33 1011.6
20260506003122 23 146 3.2 9.7 0.00 0.00 0.00 33 1011.4
20260506002619 24 196 3.2 3.2 0.00 0.00 0.00 33 1011.4
20260506002114 24 202 1.6 1.6 0.00 0.00 0.00 33 1011.5
20260506001611 24 13 1.6 3.2 0.00 0.00 0.00 33 1011.4
20260506001108 24 204 1.6 1.6 0.00 0.00 0.00 33 1011.3
20260506000606 24 215 1.6 1.6 0.00 0.00 0.00 34 1011.1
20260505235601 25 275 0.0 1.6 0.00 0.00 0.00 33 1011.1
20260505235057 25 213 1.6 3.2 0.00 0.00 0.00 33 1011.1
20260505234554 25 123 6.4 9.7 0.00 0.00 0.00 32 1011.0
20260505234051 25 245 1.6 1.6 0.00 0.00 0.00 32 1010.9
20260505233549 25 297 1.6 4.8 0.00 0.00 0.00 32 1010.9
20260505233046 25 332 3.2 3.2 0.00 0.00 0.00 32 1011.1
20260505232543 25 59 3.2 4.8 0.00 0.00 0.00 30 1011.1
20260505232041 25 322 6.4 9.7 0.00 0.00 0.00 31 1011.1
20260505231537 25 295 3.2 4.8 0.00 0.00 0.00 30 1011.0
20260505231036 25 146 4.8 4.8 0.00 0.00 0.00 30 1010.9
20260505230533 26 319 1.6 3.2 0.00 0.00 0.00 30 1011.1
20260505230030 26 322 4.8 4.8 0.00 0.00 0.00 30 1011.1
20260505225526 26 177 3.2 3.2 0.00 0.00 0.00 29 1011.0
20260505225022 25 223 0.0 1.6 0.00 0.00 0.00 30 1011.1
20260505224520 25 55 3.2 3.2 0.00 0.00 0.00 30 1011.0
20260505224017 26 274 0.0 1.6 0.00 0.00 0.00 32 1011.4
20260505223514 26 174 3.2 3.2 0.00 0.00 0.00 31 1011.1
20260505223010 26 357 4.8 8.0 0.00 0.00 0.00 30 1011.3
20260505222507 26 163 1.6 1.6 0.00 0.00 0.00 31 1010.9
20260505222002 26 345 3.2 8.0 0.00 0.00 0.00 31 1011.1
20260505221500 26 281 0.0 1.6 0.00 0.00 0.00 33 1011.0
20260505220957 26 279 4.8 8.0 0.00 0.00 0.00 31 1011.0
20260505220453 27 343 1.6 1.6 0.00 0.00 0.00 31 1011.1
20260505215951 26 40 1.6 3.2 0.00 0.00 0.00 31 1010.9
20260505215449 26 212 1.6 3.2 0.00 0.00 0.00 30 1011.1
20260505214947 26 259 1.6 1.6 0.00 0.00 0.00 32 1011.1
20260505214445 26 201 1.6 1.6 0.00 0.00 0.00 32 1010.9
20260505213941 26 226 1.6 1.6 0.00 0.00 0.00 31 1011.0
20260505213439 27 31 1.6 1.6 0.00 0.00 0.00 31 1011.0
20260505212935 26 169 0.0 1.6 0.00 0.00 0.00 32 1011.0
20260505212432 26 350 3.2 8.0 0.00 0.00 0.00 31 1011.0
20260505211928 27 289 1.6 3.2 0.00 0.00 0.00 32 1010.9
20260505211426 27 228 1.6 3.2 0.00 0.00 0.00 32 1010.8
20260505210922 27 148 4.8 8.0 0.00 0.00 0.00 32 1010.9
20260505210420 27 317 3.2 3.2 0.00 0.00 0.00 32 1011.0
20260505205916 27 330 3.2 4.8 0.00 0.00 0.00 31 1010.7
20260505205415 27 286 4.8 8.0 0.00 0.00 0.00 32 1011.0
20260505204911 27 213 4.8 4.8 0.00 0.00 0.00 33 1011.0
20260505204409 27 109 4.8 9.7 0.00 0.00 0.00 30 1011.1
20260505203906 27 268 1.6 1.6 0.00 0.00 0.00 31 1010.6
20260505203402 27 174 1.6 1.6 0.00 0.00 0.00 32 1010.9
20260505202859 28 163 8.0 12.9 0.00 0.00 0.00 28 1010.8
20260505202355 27 13 3.2 3.2 0.00 0.00 0.00 29 1010.8
20260505201852 28 47 4.8 8.0 0.00 0.00 0.00 29 1011.0
20260505201349 28 23 3.2 3.2 0.00 0.00 0.00 29 1010.9
20260505200847 28 210 1.6 3.2 0.00 0.00 0.00 31 1010.8
20260505200344 28 30 1.6 1.6 0.00 0.00 0.00 30 1010.8
20260505195839 28 190 1.6 3.2 0.00 0.00 0.00 29 1011.0
20260505195337 28 157 3.2 4.8 0.00 0.00 0.00 27 1010.8
20260505194834 28 82 4.8 9.7 0.00 0.00 0.00 29 1011.1
20260505194331 28 268 3.2 4.8 0.00 0.00 0.00 31 1011.1
20260505193826 27 355 6.4 9.7 0.00 0.00 0.00 30 1011.3
20260505193324 28 81 3.2 3.2 0.00 0.00 0.00 30 1011.2
20260505192822 27 304 3.2 3.2 0.00 0.00 0.00 30 1011.3
20260505192320 27 201 1.6 3.2 0.00 0.00 0.00 30 1011.2
20260505191817 27 81 6.4 12.9 0.00 0.00 0.00 29 1011.5
20260505191316 27 349 6.4 9.7 0.00 0.00 0.00 31 1011.5
20260505190812 28 342 3.2 8.0 0.00 0.00 0.00 29 1011.5
20260505190308 27 17 4.8 4.8 0.00 0.00 0.00 30 1011.4
20260505185804 27 76 1.6 1.6 0.00 0.00 0.00 30 1011.6
20260505185300 28 14 4.8 8.0 0.00 0.00 0.00 30 1011.9
20260505184756 28 231 1.6 1.6 0.00 0.00 0.00 34 1012.1
20260505184254 27 306 8.0 11.3 0.00 0.00 0.00 32 1011.7
20260505183751 28 147 4.8 4.8 0.00 0.00 0.00 31 1011.9
20260505183248 28 217 3.2 4.8 0.00 0.00 0.00 33 1011.8
20260505182744 28 39 4.8 8.0 0.00 0.00 0.00 32 1012.1
20260505182241 28 331 4.8 4.8 0.00 0.00 0.00 32 1012.2
20260505181737 28 115 4.8 8.0 0.00 0.00 0.00 31 1012.3
20260505181235 28 230 1.6 1.6 0.00 0.00 0.00 33 1012.4
20260505180731 27 18 3.2 3.2 0.00 0.00 0.00 32 1012.2
20260505180228 27 238 3.2 3.2 0.00 0.00 0.00 34 1012.2
20260505175724 28 22 3.2 4.8 0.00 0.00 0.00 33 1012.3
20260505175221 28 322 4.8 4.8 0.00 0.00 0.00 33 1012.4
20260505174712 27 249 1.6 1.6 0.00 0.00 0.00 33 1012.5
20260505174209 27 326 3.2 3.2 0.00 0.00 0.00 33 1012.4
20260505173705 27 173 1.6 1.6 0.00 0.00 0.00 38 1012.4
20260505173202 27 319 3.2 3.2 0.00 0.00 0.00 38 1012.7
20260505172659 27 231 1.6 1.6 0.00 0.00 0.00 39 1012.6
20260505172156 26 194 3.2 3.2 0.00 0.00 0.00 44 1012.8
20260505171655 27 260 1.6 3.2 0.00 0.00 0.00 41 1012.7
20260505171153 27 239 1.6 1.6 0.00 0.00 0.00 40 1013.0
20260505170650 27 217 1.6 3.2 0.00 0.00 0.00 39 1012.9
20260505170146 27 209 1.6 1.6 0.00 0.00 0.00 41 1013.0
20260505165646 27 257 3.2 3.2 0.00 0.00 0.00 40 1013.0
20260505165143 26 221 3.2 3.2 0.00 0.00 0.00 40 1013.1
20260505164638 26 312 1.6 1.6 0.00 0.00 0.00 40 1013.0
20260505164136 27 294 0.0 1.6 0.00 0.00 0.00 39 1013.4
20260505163634 27 87 3.2 3.2 0.00 0.00 0.00 37 1013.4
20260505163132 27 173 1.6 3.2 0.00 0.00 0.00 39 1013.6
20260505162629 26 232 0.0 1.6 0.00 0.00 0.00 40 1013.3
20260505162127 26 151 1.6 1.6 0.00 0.00 0.00 39 1013.7
20260505161623 26 232 3.2 4.8 0.00 0.00 0.00 40 1013.8
20260505161120 26 0 3.2 4.8 0.00 0.00 0.00 41 1013.9
20260505160618 26 231 1.6 3.2 0.00 0.00 0.00 41 1013.6
20260505160115 26 298 3.2 3.2 0.00 0.00 0.00 40 1013.9
20260505153055 25 235 1.6 1.6 0.00 0.00 0.00 43 1013.9
20260505152551 26 346 3.2 8.0 0.00 0.00 0.00 43 1014.0
20260505152047 25 196 1.6 1.6 0.00 0.00 0.00 43 1014.0
20260505151542 25 176 1.6 1.6 0.00 0.00 0.00 43 1013.7
20260505151040 26 300 3.2 3.2 0.00 0.00 0.00 43 1013.8
20260505150536 25 213 1.6 1.6 0.00 0.00 0.00 48 1013.7
20260505140502 22 254 1.6 1.6 0.00 0.00 0.00 49 1013.9
20260505124915 18 181 1.6 1.6 0.00 0.00 0.00 56 1014.3
20260505124412 18 156 1.6 3.2 0.00 0.00 0.00 55 1014.6
20260505123908 18 222 0.0 0.0 0.00 0.00 0.00 56 1014.4
20260505123405 18 187 0.0 1.6 0.00 0.00 0.00 56 1014.4
20260505122900 18 209 1.6 1.6 0.00 0.00 0.00 57 1014.5
20260505122358 17 49 1.6 3.2 0.00 0.00 0.00 57 1014.3
20260505121854 17 234 0.0 0.0 0.00 0.00 0.00 60 1014.3
20260505121352 17 103 1.6 1.6 0.00 0.00 0.00 60 1014.2
20260505120847 16 281 1.6 1.6 0.00 0.00 0.00 60 1014.2
20260505120344 16 274 0.0 1.6 0.00 0.00 0.00 62 1014.2
20260505115843 16 261 1.6 1.6 0.00 0.00 0.00 62 1014.2
20260505115340 16 155 1.6 1.6 0.00 0.00 0.00 61 1014.1
20260505114838 16 122 1.6 1.6 0.00 0.00 0.00 62 1014.1
20260505114334 16 334 1.6 3.2 0.00 0.00 0.00 62 1014.1
20260505113830 15 235 0.0 0.0 0.00 0.00 0.00 63 1013.8
20260505113327 15 231 1.6 1.6 0.00 0.00 0.00 63 1013.9
20260505112823 15 22 1.6 3.2 0.00 0.00 0.00 63 1013.9
20260505112320 15 184 1.6 1.6 0.00 0.00 0.00 63 1013.9
20260505111816 15 228 0.0 0.0 0.00 0.00 0.00 64 1014.0
20260505111312 15 224 0.0 0.0 0.00 0.00 0.00 64 1013.9
20260505110808 15 210 0.0 1.6 0.00 0.00 0.00 65 1013.6
20260505110306 15 293 1.6 1.6 0.00 0.00 0.00 65 1013.8
20260505101739 13 222 0.0 1.6 0.00 0.00 0.00 70 1013.3
20260505101235 13 219 0.0 0.0 0.00 0.00 0.00 70 1013.1
20260505100732 13 222 0.0 0.0 0.00 0.00 0.00 70 1013.1
20260505100229 13 228 0.0 0.0 0.00 0.00 0.00 70 1013.0
20260505095724 13 218 0.0 0.0 0.00 0.00 0.00 71 1013.0
20260505095222 13 228 0.0 0.0 0.00 0.00 0.00 71 1013.0
20260505094717 13 223 0.0 0.0 0.00 0.00 0.00 71 1012.9
20260505094214 13 221 0.0 0.0 0.00 0.00 0.00 71 1012.9
20260505093710 13 213 0.0 0.0 0.00 0.00 0.00 70 1013.1
20260505093208 13 223 0.0 0.0 0.00 0.00 0.00 70 1013.0
20260505092704 13 217 0.0 0.0 0.00 0.00 0.00 70 1012.8
20260505092204 14 216 0.0 0.0 0.00 0.00 0.00 69 1013.0
20260505091700 14 237 0.0 0.0 0.00 0.00 0.00 69 1012.9
20260505091158 14 216 0.0 0.0 0.00 0.00 0.00 69 1012.8
20260505090655 14 208 0.0 0.0 0.00 0.00 0.00 69 1012.7
20260505090154 15 192 0.0 1.6 0.00 0.00 0.00 68 1012.9
20260505085651 15 211 0.0 0.0 0.00 0.00 0.00 68 1012.8
20260505085149 15 140 1.6 1.6 0.00 0.00 0.00 68 1013.0
20260505084646 15 175 1.6 1.6 0.00 0.00 0.00 68 1012.8
20260505084145 15 215 0.0 0.0 0.00 0.00 0.00 68 1012.9
20260505083642 15 160 0.0 0.0 0.00 0.00 0.00 68 1012.9
20260505083138 15 208 0.0 0.0 0.00 0.00 0.00 68 1012.8
20260505082634 15 206 0.0 0.0 0.00 0.00 0.00 69 1013.1
20260505082131 15 217 0.0 0.0 0.00 0.00 0.00 68 1012.8
20260505081627 15 260 0.0 1.6 0.00 0.00 0.00 68 1012.6
20260505081125 15 230 0.0 0.0 0.00 0.00 0.00 68 1012.8
20260505080621 15 222 0.0 0.0 0.00 0.00 0.00 68 1012.9
20260505080117 15 223 0.0 0.0 0.00 0.00 0.00 68 1012.7
20260505075614 15 213 0.0 0.0 0.00 0.00 0.00 68 1012.6
20260505075110 15 231 0.0 0.0 0.00 0.00 0.00 67 1012.8
20260505074607 15 235 0.0 0.0 0.00 0.00 0.00 68 1012.8
20260505074104 15 219 0.0 0.0 0.00 0.00 0.00 68 1012.7
20260505073602 15 222 0.0 0.0 0.00 0.00 0.00 67 1012.7
20260505073100 15 222 0.0 0.0 0.00 0.00 0.00 68 1012.7
20260505072555 15 221 0.0 0.0 0.00 0.00 0.00 66 1012.5
20260505072052 15 272 1.6 1.6 0.00 0.00 0.00 66 1012.7
20260505071548 15 215 0.0 0.0 0.00 0.00 0.00 66 1012.7
20260505071046 15 234 0.0 1.6 0.00 0.00 0.00 66 1012.6
20260505070543 15 226 0.0 0.0 0.00 0.00 0.00 66 1012.4
20260505070039 15 228 0.0 0.0 0.00 0.00 0.00 66 1012.5
20260505065535 15 225 0.0 0.0 0.00 0.00 0.00 66 1012.3
20260505065032 15 229 0.0 0.0 0.00 0.00 0.00 66 1012.5
20260505064528 15 221 0.0 0.0 0.00 0.00 0.00 67 1012.4
20260505064027 15 216 0.0 0.0 0.00 0.00 0.00 65 1012.6
20260505063524 16 203 0.0 0.0 0.00 0.00 0.00 65 1012.5
20260505063020 15 222 0.0 0.0 0.00 0.00 0.00 65 1012.4
20260505062517 15 225 0.0 0.0 0.00 0.00 0.00 66 1012.5
20260505062014 15 230 0.0 0.0 0.00 0.00 0.00 67 1012.6
20260505061512 15 208 0.0 1.6 0.00 0.00 0.00 68 1012.7
20260505061009 14 224 0.0 0.0 0.00 0.00 0.00 69 1012.4
20260505060506 13 225 0.0 0.0 0.00 0.00 0.00 71 1012.6
20260505060002 13 219 0.0 0.0 0.00 0.00 0.00 72 1012.6
20260505055458 13 220 0.0 0.0 0.00 0.00 0.00 72 1012.5
20260505054955 13 219 0.0 0.0 0.00 0.00 0.00 72 1012.5
20260505054453 14 219 0.0 0.0 0.00 0.00 0.00 71 1012.6
20260505053950 14 219 0.0 0.0 0.00 0.00 0.00 70 1012.6
20260505053447 15 220 0.0 0.0 0.00 0.00 0.00 69 1012.7
20260505052944 15 220 0.0 0.0 0.00 0.00 0.00 68 1012.6
20260505052441 15 224 0.0 0.0 0.00 0.00 0.00 69 1012.6
20260505051938 15 217 0.0 0.0 0.00 0.00 0.00 67 1012.7
20260505051435 15 219 0.0 0.0 0.00 0.00 0.00 66 1012.7
20260505050933 16 219 0.0 0.0 0.00 0.00 0.00 64 1012.8
20260505050431 16 218 0.0 0.0 0.00 0.00 0.00 63 1012.6
20260505041359 16 238 0.0 1.6 0.00 0.00 0.00 61 1012.7
20260505040856 15 264 0.0 0.0 0.00 0.00 0.00 62 1012.7
20260505040354 15 231 0.0 1.6 0.00 0.00 0.00 64 1012.8
20260505035850 15 223 0.0 0.0 0.00 0.00 0.00 65 1012.6
20260505035345 15 220 0.0 0.0 0.00 0.00 0.00 64 1012.5
20260505034844 15 217 0.0 0.0 0.00 0.00 0.00 63 1012.5
20260505034340 16 214 0.0 0.0 0.00 0.00 0.00 62 1012.5
20260505033837 16 205 0.0 0.0 0.00 0.00 0.00 61 1012.5
20260505033334 16 223 0.0 0.0 0.00 0.00 0.00 60 1012.8
20260505032832 16 223 0.0 0.0 0.00 0.00 0.00 59 1012.6
20260505032328 17 222 0.0 0.0 0.00 0.00 0.00 58 1012.7
20260505031825 17 225 0.0 0.0 0.00 0.00 0.00 56 1012.8
20260505031322 17 216 0.0 0.0 0.00 0.00 0.00 55 1012.5
20260505030819 17 221 0.0 0.0 0.00 0.00 0.00 54 1012.3
20260505030315 18 214 0.0 0.0 0.00 0.00 0.00 53 1012.5
20260505025810 18 226 0.0 0.0 0.00 0.00 0.00 53 1012.3
20260505025308 18 212 0.0 1.6 0.00 0.00 0.00 52 1012.4
20260505024807 18 233 0.0 0.0 0.00 0.00 0.00 52 1012.4
20260505024304 18 222 0.0 1.6 0.00 0.00 0.00 52 1012.7
20260505023801 18 215 0.0 0.0 0.00 0.00 0.00 51 1012.5
20260505023258 18 233 0.0 1.6 0.00 0.00 0.00 50 1012.7
20260505022755 18 231 0.0 1.6 0.00 0.00 0.00 51 1012.6
20260505022252 18 277 1.6 1.6 0.00 0.00 0.00 52 1012.6
20260505021749 18 211 0.0 0.0 0.00 0.00 0.00 53 1012.5
20260505021246 18 218 0.0 0.0 0.00 0.00 0.00 51 1012.4
20260505020742 18 214 0.0 0.0 0.00 0.00 0.00 50 1012.4
20260505020237 18 227 0.0 1.6 0.00 0.00 0.00 49 1012.3
20260505015734 19 200 0.0 1.6 0.00 0.00 0.00 49 1012.5
20260505015231 19 223 0.0 0.0 0.00 0.00 0.00 49 1012.4
20260505014728 19 146 4.8 4.8 0.00 0.00 0.00 48 1012.4
20260505014226 19 209 0.0 0.0 0.00 0.00 0.00 48 1012.3
20260505013722 20 193 0.0 1.6 0.00 0.00 0.00 47 1012.1
20260505013219 20 230 0.0 0.0 0.00 0.00 0.00 47 1012.0
20260505012718 20 225 0.0 0.0 0.00 0.00 0.00 47 1011.9
20260505012215 20 207 0.0 1.6 0.00 0.00 0.00 48 1011.8
20260505011710 20 244 0.0 1.6 0.00 0.00 0.00 47 1011.9
20260505011208 20 219 0.0 0.0 0.00 0.00 0.00 47 1011.9
20260505010703 20 216 0.0 0.0 0.00 0.00 0.00 46 1011.9
20260505010200 20 261 1.6 1.6 0.00 0.00 0.00 47 1012.0
20260505005656 20 166 0.0 1.6 0.00 0.00 0.00 46 1011.9
20260505005153 20 212 0.0 0.0 0.00 0.00 0.00 45 1011.7
20260505004650 20 223 0.0 0.0 0.00 0.00 0.00 45 1011.8